Volver al catálogo

ONEWEB-0341

ActivoComunicacionesPO
NORAD 49207·PAYLOAD·🇬🇧 United Kingdom

Lanzado Sep 14, 2021 desde Baikonur Cosmodrome

Loading…

Próximos Pases (próximas 24 horas)

TLE

ActualizadoSource: CelesTrak SupGP

Época: Sep 14, 2026, 21:50 UTC

1 49207C 21083X   26257.90991157 -.00000910  00000+0 -23107-2 0  2572
2 49207  87.9165 317.6313 0001532 107.7237 289.1628 13.18688659    14

Sigue ONEWEB-0341 en tiempo real con AllMySat

Download on the App Store